Time,TemperatureF,DewpointF,PressureIn,WindDirection,WindDirectionDegrees,WindSpeedMPH,WindSpeedGustMPH,Humidity,HourlyPrecipIn,Conditions,Clouds,dailyrainin,SoftwareType,DateUTC
2013-03-30 00:02:00,47.0,41.0,30.21,SE,143,0.0,-999.0,80,-99.99,,,-99.99,,2013-03-30 04:02:00,
2013-03-30 00:12:00,47.0,41.0,30.21,SE,143,0.0,-999.0,80,-99.99,,,-99.99,,2013-03-30 04:12:00,
2013-03-30 00:23:00,47.0,41.0,30.21,SE,143,0.0,-999.0,80,-99.99,,,-99.99,,2013-03-30 04:23:00,
2013-03-30 00:33:00,48.0,42.0,30.20,SE,143,0.0,-999.0,81,-99.99,,,-99.99,,2013-03-30 04:33:00,
2013-03-30 00:43:00,48.0,42.0,30.20,SE,143,0.0,-999.0,81,-99.99,,,-99.99,,2013-03-30 04:43:00,
2013-03-30 00:53:00,48.0,42.0,30.20,SE,142,0.0,-999.0,81,-99.99,,,-99.99,,2013-03-30 04:53:00,
2013-03-30 01:02:00,48.0,42.0,30.20,SE,143,0.0,-999.0,81,-99.99,,,-99.99,,2013-03-30 05:02:00,
2013-03-30 01:12:00,48.0,42.0,30.20,SE,143,0.0,-999.0,81,-99.99,,,-99.99,,2013-03-30 05:12:00,
2013-03-30 01:22:00,48.0,43.0,30.20,SE,143,0.0,-999.0,82,-99.99,,,-99.99,,2013-03-30 05:22:00,
2013-03-30 01:32:00,48.0,43.0,30.20,SE,142,0.0,-999.0,82,-99.99,,,-99.99,,2013-03-30 05:32:00,
2013-03-30 01:42:00,48.0,43.0,30.20,SE,142,0.0,-999.0,82,-99.99,,,-99.99,,2013-03-30 05:42:00,
2013-03-30 01:52:00,48.0,43.0,30.19,SE,142,0.0,-999.0,84,-99.99,,,-99.99,,2013-03-30 05:52:00,
2013-03-30 02:02:00,48.0,43.0,30.18,SE,143,0.0,-999.0,84,-99.99,,,-99.99,,2013-03-30 06:02:00,
2013-03-30 02:12:00,48.0,43.0,30.18,SE,143,0.0,-999.0,84,-99.99,,,-99.99,,2013-03-30 06:12:00,
2013-03-30 02:23:00,48.0,43.0,30.18,SE,143,0.0,-999.0,84,-99.99,,,-99.99,,2013-03-30 06:23:00,
2013-03-30 02:32:00,48.0,44.0,30.18,SE,143,0.0,-999.0,85,-99.99,,,-99.99,,2013-03-30 06:32:00,
2013-03-30 02:42:00,48.0,44.0,30.18,SE,143,0.0,-999.0,85,-99.99,,,-99.99,,2013-03-30 06:42:00,
2013-03-30 02:52:00,48.0,44.0,30.18,SE,142,0.0,-999.0,85,-99.99,,,-99.99,,2013-03-30 06:52:00,
2013-03-30 03:02:00,48.0,44.0,30.17,SE,142,0.0,-999.0,86,-99.99,,,-99.99,,2013-03-30 07:02:00,
2013-03-30 03:12:00,48.0,44.0,30.17,SE,142,0.0,-999.0,86,-99.99,,,-99.99,,2013-03-30 07:12:00,
2013-03-30 03:22:00,48.0,44.0,30.17,SE,143,0.0,-999.0,86,-99.99,,,-99.99,,2013-03-30 07:22:00,
2013-03-30 03:32:00,48.0,44.0,30.17,SE,143,0.0,-999.0,87,-99.99,,,-99.99,,2013-03-30 07:32:00,
2013-03-30 03:42:00,48.0,44.0,30.17,SE,143,0.0,-999.0,87,-99.99,,,-99.99,,2013-03-30 07:42:00,
2013-03-30 03:52:00,48.0,44.0,30.16,SE,143,0.0,-999.0,87,-99.99,,,-99.99,,2013-03-30 07:52:00,
2013-03-30 04:02:00,48.0,45.0,30.16,SE,143,0.0,-999.0,88,-99.99,,,-99.99,,2013-03-30 08:02:00,
2013-03-30 04:12:00,48.0,45.0,30.16,SE,143,0.0,-999.0,88,-99.99,,,-99.99,,2013-03-30 08:12:00,
2013-03-30 04:22:00,48.0,45.0,30.16,SE,143,0.0,-999.0,88,-99.99,,,-99.99,,2013-03-30 08:22:00,
2013-03-30 04:32:00,48.0,45.0,30.15,SE,143,0.0,-999.0,88,-99.99,,,-99.99,,2013-03-30 08:32:00,
2013-03-30 04:42:00,48.0,45.0,30.15,SE,143,0.0,-999.0,88,-99.99,,,-99.99,,2013-03-30 08:42:00,
2013-03-30 04:53:00,48.0,45.0,30.15,SE,142,0.0,-999.0,89,-99.99,,,-99.99,,2013-03-30 08:53:00,
2013-03-30 05:02:00,47.0,44.0,30.15,SE,143,0.0,-999.0,89,-99.99,,,-99.99,,2013-03-30 09:02:00,
2013-03-30 05:12:00,47.0,44.0,30.16,SE,143,0.0,-999.0,90,-99.99,,,-99.99,,2013-03-30 09:12:00,
2013-03-30 05:22:00,47.0,44.0,30.16,SE,143,0.0,-999.0,90,-99.99,,,-99.99,,2013-03-30 09:22:00,
2013-03-30 05:33:00,48.0,45.0,30.17,SE,143,0.0,-999.0,90,-99.99,,,-99.99,,2013-03-30 09:33:00,
2013-03-30 05:43:00,48.0,45.0,30.17,SE,143,0.0,-999.0,90,-99.99,,,-99.99,,2013-03-30 09:43:00,
2013-03-30 05:53:00,48.0,45.0,30.17,SE,143,0.0,-999.0,91,-99.99,,,-99.99,,2013-03-30 09:53:00,
2013-03-30 06:03:00,48.0,45.0,30.16,SE,142,0.0,-999.0,91,-99.99,,,-99.99,,2013-03-30 10:03:00,
2013-03-30 06:13:00,48.0,45.0,30.16,SE,142,0.0,-999.0,91,-99.99,,,-99.99,,2013-03-30 10:13:00,
2013-03-30 06:23:00,48.0,45.0,30.16,SE,143,0.0,-999.0,91,-99.99,,,-99.99,,2013-03-30 10:23:00,
2013-03-30 06:33:00,48.0,46.0,30.16,SE,142,0.0,-999.0,92,-99.99,,,-99.99,,2013-03-30 10:33:00,
2013-03-30 06:42:00,48.0,46.0,30.16,SE,142,0.0,-999.0,92,-99.99,,,-99.99,,2013-03-30 10:42:00,
2013-03-30 06:52:00,48.0,46.0,30.16,SE,143,0.0,-999.0,92,-99.99,,,-99.99,,2013-03-30 10:52:00,
2013-03-30 07:04:00,48.0,46.0,30.16,SE,143,0.0,-999.0,92,-99.99,,,-99.99,,2013-03-30 11:04:00,
2013-03-30 07:12:00,48.0,46.0,30.16,SE,143,0.0,-999.0,92,-99.99,,,-99.99,,2013-03-30 11:12:00,
2013-03-30 07:22:00,48.0,46.0,30.16,SE,142,0.0,-999.0,92,-99.99,,,-99.99,,2013-03-30 11:22:00,
2013-03-30 07:33:00,47.0,45.0,30.15,SE,142,0.0,-999.0,92,-99.99,,,-99.99,,2013-03-30 11:33:00,
2013-03-30 07:42:00,47.0,45.0,30.15,SE,142,0.0,-999.0,92,-99.99,,,-99.99,,2013-03-30 11:42:00,
2013-03-30 07:52:00,47.0,45.0,30.15,SE,143,0.0,-999.0,93,-99.99,,,-99.99,,2013-03-30 11:52:00,
2013-03-30 08:02:00,47.0,45.0,30.15,SE,143,0.0,-999.0,93,-99.99,,,-99.99,,2013-03-30 12:02:00,
2013-03-30 08:12:00,47.0,45.0,30.15,SE,143,0.0,-999.0,93,-99.99,,,-99.99,,2013-03-30 12:12:00,
2013-03-30 08:22:00,48.0,46.0,30.15,SE,143,0.0,-999.0,94,-99.99,,,-99.99,,2013-03-30 12:22:00,
2013-03-30 08:33:00,49.0,47.0,30.15,SE,142,0.0,-999.0,94,-99.99,,,-99.99,,2013-03-30 12:33:00,
2013-03-30 08:42:00,49.0,47.0,30.15,SE,142,0.0,-999.0,94,-99.99,,,-99.99,,2013-03-30 12:42:00,
2013-03-30 08:52:00,50.0,48.0,30.15,SE,142,0.0,-999.0,93,-99.99,,,-99.99,,2013-03-30 12:52:00,
2013-03-30 09:02:00,50.0,48.0,30.15,SE,142,0.0,-999.0,93,-99.99,,,-99.99,,2013-03-30 13:02:00,
2013-03-30 09:12:00,50.0,48.0,30.15,SE,142,0.0,-999.0,93,-99.99,,,-99.99,,2013-03-30 13:12:00,
2013-03-30 09:22:00,53.0,50.0,30.16,SSW,196,0.0,-999.0,90,-99.99,,,-99.99,,2013-03-30 13:22:00,
2013-03-30 09:32:00,55.0,50.0,30.15,South,186,0.0,-999.0,84,-99.99,,,-99.99,,2013-03-30 13:32:00,
2013-03-30 09:43:00,55.0,50.0,30.15,South,186,0.0,-999.0,84,-99.99,,,-99.99,,2013-03-30 13:43:00,
2013-03-30 09:52:00,58.0,51.0,30.15,West,261,0.0,-999.0,77,-99.99,,,-99.99,,2013-03-30 13:52:00,
2013-03-30 10:03:00,59.0,50.0,30.14,WSW,245,0.0,-999.0,72,-99.99,,,-99.99,,2013-03-30 14:03:00,
2013-03-30 10:12:00,59.0,50.0,30.14,WSW,245,0.0,-999.0,72,-99.99,,,-99.99,,2013-03-30 14:12:00,
2013-03-30 10:23:00,59.0,50.0,30.14,WSW,245,0.0,-999.0,72,-99.99,,,-99.99,,2013-03-30 14:23:00,
2013-03-30 10:32:00,62.0,51.0,30.14,SW,236,0.0,-999.0,67,-99.99,,,-99.99,,2013-03-30 14:32:00,
2013-03-30 10:42:00,62.0,51.0,30.14,SW,236,0.0,-999.0,67,-99.99,,,-99.99,,2013-03-30 14:42:00,
2013-03-30 10:53:00,62.0,50.0,30.15,SSW,207,1.0,-999.0,64,-99.99,,,-99.99,,2013-03-30 14:53:00,
2013-03-30 11:03:00,62.0,51.0,30.15,SW,217,0.0,-999.0,66,-99.99,,,-99.99,,2013-03-30 15:03:00,
2013-03-30 11:12:00,62.0,51.0,30.15,SW,217,0.0,-999.0,66,-99.99,,,-99.99,,2013-03-30 15:12:00,
2013-03-30 11:22:00,63.0,51.0,30.15,WSW,256,0.0,-999.0,64,-99.99,,,-99.99,,2013-03-30 15:22:00,
2013-03-30 11:34:00,63.0,49.0,30.15,SW,234,0.0,-999.0,61,-99.99,,,-99.99,,2013-03-30 15:34:00,
2013-03-30 11:43:00,63.0,49.0,30.15,SW,234,0.0,-999.0,61,-99.99,,,-99.99,,2013-03-30 15:43:00,
2013-03-30 11:52:00,63.0,49.0,30.15,WNW,284,1.0,-999.0,61,-99.99,,,-99.99,,2013-03-30 15:52:00,
2013-03-30 12:03:00,63.0,49.0,30.15,WNW,290,1.0,-999.0,61,-99.99,,,-99.99,,2013-03-30 16:03:00,
2013-03-30 12:13:00,63.0,50.0,30.14,WNW,293,0.0,-999.0,62,-99.99,,,-99.99,,2013-03-30 16:13:00,
2013-03-30 12:23:00,63.0,50.0,30.14,WNW,293,0.0,-999.0,62,-99.99,,,-99.99,,2013-03-30 16:23:00,
2013-03-30 12:33:00,65.0,50.0,30.14,WNW,284,0.0,-999.0,59,-99.99,,,-99.99,,2013-03-30 16:33:00,
2013-03-30 12:43:00,65.0,50.0,30.14,WNW,284,0.0,-999.0,59,-99.99,,,-99.99,,2013-03-30 16:43:00,
2013-03-30 12:52:00,65.0,50.0,30.14,West,276,1.0,-999.0,59,-99.99,,,-99.99,,2013-03-30 16:52:00,
2013-03-30 13:02:00,66.0,50.0,30.13,SSW,195,0.0,-999.0,57,-99.99,,,-99.99,,2013-03-30 17:02:00,
2013-03-30 13:13:00,66.0,50.0,30.13,SSW,195,0.0,-999.0,57,-99.99,,,-99.99,,2013-03-30 17:13:00,
2013-03-30 13:23:00,67.0,51.0,30.12,WSW,240,0.0,-999.0,56,-99.99,,,-99.99,,2013-03-30 17:23:00,
2013-03-30 13:32:00,68.0,50.0,30.11,South,185,1.0,-999.0,52,-99.99,,,-99.99,,2013-03-30 17:32:00,
2013-03-30 13:42:00,68.0,50.0,30.11,South,185,1.0,-999.0,52,-99.99,,,-99.99,,2013-03-30 17:42:00,
2013-03-30 13:52:00,69.0,51.0,30.11,West,259,1.0,-999.0,53,-99.99,,,-99.99,,2013-03-30 17:52:00,
2013-03-30 14:03:00,71.0,51.0,30.10,WSW,252,2.0,-999.0,49,-99.99,,,-99.99,,2013-03-30 18:03:00,
2013-03-30 14:12:00,70.0,51.0,30.09,WSW,256,1.0,-999.0,51,-99.99,,,-99.99,,2013-03-30 18:12:00,
2013-03-30 14:22:00,70.0,51.0,30.09,WSW,256,1.0,-999.0,51,-99.99,,,-99.99,,2013-03-30 18:22:00,
2013-03-30 14:33:00,70.0,50.0,30.09,West,279,2.0,-999.0,50,-99.99,,,-99.99,,2013-03-30 18:33:00,
2013-03-30 14:42:00,70.0,50.0,30.09,West,279,2.0,-999.0,50,-99.99,,,-99.99,,2013-03-30 18:42:00,
2013-03-30 14:53:00,71.0,51.0,30.08,WNW,300,1.0,-999.0,49,-99.99,,,-99.99,,2013-03-30 18:53:00,
2013-03-30 15:03:00,72.0,50.0,30.08,West,274,2.0,-999.0,46,-99.99,,,-99.99,,2013-03-30 19:03:00,
2013-03-30 15:13:00,72.0,50.0,30.08,West,274,2.0,-999.0,46,-99.99,,,-99.99,,2013-03-30 19:13:00,
2013-03-30 15:22:00,73.0,49.0,30.06,West,272,3.0,-999.0,43,-99.99,,,-99.99,,2013-03-30 19:22:00,
2013-03-30 15:32:00,73.0,49.0,30.06,South,178,3.0,-999.0,42,-99.99,,,-99.99,,2013-03-30 19:32:00,
2013-03-30 15:42:00,73.0,49.0,30.06,South,178,3.0,-999.0,42,-99.99,,,-99.99,,2013-03-30 19:42:00,
2013-03-30 15:52:00,75.0,51.0,30.05,WNW,290,2.0,-999.0,43,-99.99,,,-99.99,,2013-03-30 19:52:00,
2013-03-30 16:02:00,75.0,50.0,30.04,NW,316,1.0,-999.0,42,-99.99,,,-99.99,,2013-03-30 20:02:00,
2013-03-30 16:12:00,75.0,50.0,30.04,NW,316,1.0,-999.0,42,-99.99,,,-99.99,,2013-03-30 20:12:00,
2013-03-30 16:22:00,75.0,49.0,30.04,West,264,2.0,-999.0,40,-99.99,,,-99.99,,2013-03-30 20:22:00,
2013-03-30 16:33:00,73.0,50.0,30.04,SSE,157,1.0,-999.0,44,-99.99,,,-99.99,,2013-03-30 20:33:00,
2013-03-30 16:42:00,73.0,50.0,30.04,SSE,157,1.0,-999.0,44,-99.99,,,-99.99,,2013-03-30 20:42:00,
2013-03-30 16:52:00,72.0,51.0,30.03,SSE,167,2.0,-999.0,48,-99.99,,,-99.99,,2013-03-30 20:52:00,
2013-03-30 17:03:00,72.0,51.0,30.03,East,86,1.0,-999.0,48,-99.99,,,-99.99,,2013-03-30 21:03:00,
2013-03-30 17:12:00,72.0,51.0,30.03,East,86,1.0,-999.0,48,-99.99,,,-99.99,,2013-03-30 21:12:00,
2013-03-30 17:22:00,73.0,51.0,30.03,WSW,253,2.0,-999.0,46,-99.99,,,-99.99,,2013-03-30 21:22:00,
2013-03-30 17:34:00,73.0,51.0,30.02,SSW,208,1.0,-999.0,46,-99.99,,,-99.99,,2013-03-30 21:34:00,
2013-03-30 17:43:00,73.0,51.0,30.02,SSW,208,1.0,-999.0,46,-99.99,,,-99.99,,2013-03-30 21:43:00,
2013-03-30 17:52:00,72.0,50.0,30.02,South,176,1.0,-999.0,46,-99.99,,,-99.99,,2013-03-30 21:52:00,
2013-03-30 18:03:00,72.0,50.0,30.01,SW,221,1.0,-999.0,46,-99.99,,,-99.99,,2013-03-30 22:03:00,
2013-03-30 18:13:00,72.0,50.0,30.01,SW,221,1.0,-999.0,46,-99.99,,,-99.99,,2013-03-30 22:13:00,
2013-03-30 18:23:00,71.0,49.0,30.02,South,186,0.0,-999.0,45,-99.99,,,-99.99,,2013-03-30 22:23:00,
2013-03-30 18:33:00,70.0,48.0,30.02,SE,144,1.0,-999.0,46,-99.99,,,-99.99,,2013-03-30 22:33:00,
2013-03-30 18:43:00,70.0,48.0,30.02,SE,144,1.0,-999.0,46,-99.99,,,-99.99,,2013-03-30 22:43:00,
2013-03-30 18:53:00,69.0,47.0,30.03,SSE,155,1.0,-999.0,46,-99.99,,,-99.99,,2013-03-30 22:53:00,
2013-03-30 19:02:00,69.0,48.0,30.03,South,172,1.0,-999.0,47,-99.99,,,-99.99,,2013-03-30 23:02:00,
2013-03-30 19:12:00,69.0,48.0,30.03,South,172,1.0,-999.0,47,-99.99,,,-99.99,,2013-03-30 23:12:00,
2013-03-30 19:22:00,68.0,47.0,30.03,SE,141,0.0,-999.0,47,-99.99,,,-99.99,,2013-03-30 23:22:00,
2013-03-30 19:33:00,67.0,47.0,30.03,SSW,194,1.0,-999.0,48,-99.99,,,-99.99,,2013-03-30 23:33:00,
2013-03-30 19:42:00,67.0,47.0,30.03,SSW,194,1.0,-999.0,48,-99.99,,,-99.99,,2013-03-30 23:42:00,
2013-03-30 19:52:00,66.0,46.0,30.04,SW,215,0.0,-999.0,49,-99.99,,,-99.99,,2013-03-30 23:52:00,
2013-03-30 20:03:00,65.0,46.0,30.04,SE,138,0.0,-999.0,51,-99.99,,,-99.99,,2013-03-31 00:03:00,
2013-03-30 20:12:00,65.0,46.0,30.04,SE,138,0.0,-999.0,51,-99.99,,,-99.99,,2013-03-31 00:12:00,
2013-03-30 20:22:00,64.0,47.0,30.04,SSE,161,0.0,-999.0,53,-99.99,,,-99.99,,2013-03-31 00:22:00,
2013-03-30 20:32:00,63.0,47.0,30.04,South,172,0.0,-999.0,55,-99.99,,,-99.99,,2013-03-31 00:32:00,
2013-03-30 20:42:00,63.0,47.0,30.04,South,172,0.0,-999.0,55,-99.99,,,-99.99,,2013-03-31 00:42:00,
2013-03-30 20:52:00,62.0,47.0,30.04,South,172,0.0,-999.0,58,-99.99,,,-99.99,,2013-03-31 00:52:00,
2013-03-30 21:02:00,61.0,47.0,30.05,South,172,0.0,-999.0,60,-99.99,,,-99.99,,2013-03-31 01:02:00,
2013-03-30 21:12:00,61.0,47.0,30.05,South,172,0.0,-999.0,60,-99.99,,,-99.99,,2013-03-31 01:12:00,
2013-03-30 21:22:00,61.0,48.0,30.05,South,172,0.0,-999.0,63,-99.99,,,-99.99,,2013-03-31 01:22:00,
2013-03-30 21:32:00,60.0,48.0,30.05,South,173,0.0,-999.0,65,-99.99,,,-99.99,,2013-03-31 01:32:00,
2013-03-30 21:42:00,60.0,48.0,30.05,South,173,0.0,-999.0,65,-99.99,,,-99.99,,2013-03-31 01:42:00,
2013-03-30 21:52:00,59.0,48.0,30.05,South,171,0.0,-999.0,67,-99.99,,,-99.99,,2013-03-31 01:52:00,
2013-03-30 22:02:00,59.0,49.0,30.05,South,171,0.0,-999.0,69,-99.99,,,-99.99,,2013-03-31 02:02:00,
2013-03-30 22:13:00,59.0,49.0,30.05,South,171,0.0,-999.0,69,-99.99,,,-99.99,,2013-03-31 02:13:00,
2013-03-30 22:22:00,59.0,50.0,30.05,South,171,0.0,-999.0,72,-99.99,,,-99.99,,2013-03-31 02:22:00,
2013-03-30 22:32:00,59.0,51.0,30.05,SSE,159,0.0,-999.0,74,-99.99,,,-99.99,,2013-03-31 02:32:00,
2013-03-30 22:43:00,59.0,51.0,30.05,SSE,159,0.0,-999.0,74,-99.99,,,-99.99,,2013-03-31 02:43:00,
2013-03-30 22:52:00,59.0,51.0,30.05,SSE,159,0.0,-999.0,75,-99.99,,,-99.99,,2013-03-31 02:52:00,
2013-03-30 23:02:00,59.0,51.0,30.05,SSE,166,0.0,-999.0,76,-99.99,,,-99.99,,2013-03-31 03:02:00,
2013-03-30 23:13:00,59.0,51.0,30.05,SSE,166,0.0,-999.0,76,-99.99,,,-99.99,,2013-03-31 03:13:00,
2013-03-30 23:22:00,59.0,52.0,30.05,South,172,0.0,-999.0,78,-99.99,,,-99.99,,2013-03-31 03:22:00,
2013-03-30 23:33:00,59.0,52.0,30.05,South,175,0.0,-999.0,79,-99.99,,,-99.99,,2013-03-31 03:33:00,
2013-03-30 23:43:00,59.0,52.0,30.05,South,175,0.0,-999.0,79,-99.99,,,-99.99,,2013-03-31 03:43:00,
2013-03-30 23:53:00,59.0,52.0,30.05,South,178,0.0,-999.0,79,-99.99,,,-99.99,,2013-03-31 03:53:00,